Regional Weather Roundup
Issued by NWS

Home | Current Version | Previous Version | Text Only | Print | Product List | Glossary Off
Versions: 1 2 3 4 5 6 7 8 9 10 11 12 13 14 15 16 17 18 19 20 21 22 23 24 25 26 27 28 29 30 31 32 33 34 35 36 37 38 39 40 41 42 43 44 45 46 47 48 49 50

890
ASUS43 KLMK 270010
RWRKY
KENTUCKY REGIONAL WEATHER ROUNDUP
NATIONAL WEATHER SERVICE LOUISVILLE KY
700 PM EST SUN FEB 26 2017

NOTE "FAIR" INDICATES FEW OR NO CLOUDS BELOW 12,000 FEET
WITH NO SIGNIFICANT WEATHER AND/OR OBSTRUCTIONS TO VISIBILITY.

KYZ001>023-026-027-061>063-070>075-270100-
WESTERN AND SOUTH CENTRAL KENTUCKY

CITY           SKY/WX    TMP DP  RH WIND       PRES   REMARKS
PADUCAH        CLOUDY    48  24  39 E3        30.10F
HENDERSON      CLOUDY    46  21  36 CALM      30.14S
OWENSBORO      CLOUDY    48  25  40 S5        30.16R
HOPKINSVILLE   PTCLDY    53  15  22 CALM      30.13R
BOWLING GREEN  CLOUDY    51  16  24 CALM      30.17R
GLASGOW        PTCLDY    45  20  36 CALM      30.16R
$$

KYZ024-025-028>034-038-045-046-053-270100-
NORTH CENTRAL KENTUCKY

CITY           SKY/WX    TMP DP  RH WIND       PRES   REMARKS
LOUISVILLE/SDF MOCLDY    49  14  24 S9        30.16R
LOUISVILLE/LOU CLOUDY    49  15  25 S6        30.17R
FORT KNOX      CLOUDY    46  15  29 S3        30.15R
$$

KYZ035>037-039>044-047>052-055>060-089>105-270100-
NORTHEAST KENTUCKY

CITY           SKY/WX    TMP DP  RH WIND       PRES   REMARKS
LEXINGTON      PTCLDY    44  16  32 S6        30.17S
COVINGTON      MOCLDY    42  16  34 S6        30.15S
FRANKFORT      CLEAR     44  13  28 S3        30.16S
$$

KYZ054-064>069-076>088-106>120-270100-
SOUTHEAST KENTUCKY

CITY           SKY/WX    TMP DP  RH WIND       PRES   REMARKS
JACKSON        CLEAR     44  13  28 CALM      30.19R
LONDON         CLEAR     45  16  31 SE3       30.18S
SOMERSET       CLEAR     45  14  29 CALM      30.19S
MIDDLESBORO    CLEAR     43  23  45 CALM      30.21S
MONTICELLO     CLEAR     36  26  67 NW8       30.18F WCI  30
$$





USA.gov is the U.S. government's official web portal to all federal, state and local government web resources and services.